Weather History for Cold Bay, AK

Change the Weather History Date:

Wednesday, February 12, 2014

  Actual Average Record
Temperature  
Mean Temperature 25 °F 29 °F  
Max Temperature 29 °F 34 °F 42 °F (1968)
Min Temperature 20 °F 24 °F -2 °F (2008)
Degree Days  
Heating Degree Days 40 36  
Month to date heating degree days 369 437  
Since 1 July heating degree days 4558 5653  
Cooling Degree Days 0    
Month to date cooling degree days 0  
Year to date cooling degree days 0  
Moisture  
Dew Point 18 °F    
Average Humidity 72    
Maximum Humidity 86    
Minimum Humidity 54    
Precipitation  
Precipitation 0.05 in 0.10 in 1.89 in (2009)
Month to date precipitation 0.44 1.26  
Year to date precipitation 4.77 4.42  
Snow  
Snow 0.50 in 0.40 in 1.30 in (2005)
Month to date snowfall 1.5 5.5  
Since 1 July snowfall 17.4 44.8  
Snow Depth T in    
Sea Level Pressure  
Sea Level Pressure 29.75 in    
Wind  
Wind Speed 20 mph (NNW)    
Max Wind Speed 26 mph    
Max Gust Speed 31 mph    
Visibility 5 miles    
Events Snow    
T = Trace of Precipitation, MM = Missing Value Source: NWS Daily Summary

Daily Weather History Graph

Daily Weather History Graph

Search for Another Location

Airport:

Trip Planner

Search our weather history database for the weather conditions in past years. The results will help you decide how hot, cold, wet, or windy it might be!

Date:

Astronomy

Feb. 12, 2014 Rise Set
Actual Time 9:19 AM AKST 6:51 PM AKST
Civil Twilight 8:41 AM AKST 7:29 PM AKST
Nautical Twilight 7:58 AM AKST 8:12 PM AKST
Astronomical Twilight 7:16 AM AKST 8:54 PM AKST
Moon 5:09 PM AKST (2/12) 7:52 AM AKST (2/12)
Length of Visible Light 10h 48m
Length of Day
9h 31m
Waxing Gibbous, 96% of the Moon is Illuminated
Feb 12
Waxing Gibbous
Feb 14
Full
Feb 22
Last Quarter
Feb 28
New
Mar 8
First Quarter

Hourly Weather History & Observations

Time (AKST) Temp. Windchill Dew Point Humidity Pressure Visibility Wind Dir Wind Speed Gust Speed Precip Events Conditions
12:01 AM 28.4 °F 16.2 °F 19.4 °F 69% 29.96 in 9.0 mi NNW 17.3 mph 25.3 mph 0.00 in Snow Light Snow
12:53 AM 28.0 °F 15.7 °F 19.0 °F 69% 29.96 in 9.0 mi NNW 17.3 mph 28.8 mph 0.00 in Snow Light Snow
1:53 AM 27.0 °F 13.9 °F 19.0 °F 72% 29.95 in 9.0 mi NNW 18.4 mph - 0.00 in Snow Light Snow
2:53 AM 26.6 °F 12.7 °F 19.4 °F 74% 29.93 in 9.0 mi NW 20.7 mph 26.5 mph N/A Snow Light Snow
3:53 AM 27.0 °F 12.5 °F 19.0 °F 72% 29.94 in 9.0 mi NW 23.0 mph - 0.00 in Snow Light Snow
4:53 AM 27.0 °F 15.2 °F 19.0 °F 72% 29.93 in 9.0 mi NNW 15.0 mph 26.5 mph 0.00 in Snow Light Snow
5:53 AM 27.0 °F 13.5 °F 19.0 °F 72% 29.92 in 9.0 mi NNW 19.6 mph - 0.00 in Snow Light Snow
6:53 AM 26.1 °F 12.0 °F 18.0 °F 71% 29.91 in 9.0 mi NNW 20.7 mph - 0.00 in Snow Light Snow
7:53 AM 26.1 °F 11.3 °F 18.0 °F 71% 29.90 in 9.0 mi NNW 23.0 mph 29.9 mph 0.00 in Snow Light Snow
8:53 AM 27.0 °F 13.9 °F 17.1 °F 66% 29.88 in 9.0 mi NW 18.4 mph 27.6 mph 0.00 in Snow Light Snow
9:53 AM 27.0 °F 13.5 °F 18.0 °F 69% 29.87 in 9.0 mi NNW 19.6 mph 27.6 mph 0.00 in Snow Light Snow
10:18 AM 26.6 °F 13.4 °F 17.6 °F 69% 29.87 in 9.0 mi NW 18.4 mph - 0.00 in Snow Light Snow
10:30 AM 26.6 °F 13.1 °F 17.6 °F 69% 29.86 in 9.0 mi NW 19.6 mph - 0.00 in Snow Light Snow
10:53 AM 28.0 °F 14.6 °F 18.0 °F 66% 29.86 in 9.0 mi NW 20.7 mph - 0.00 in Snow Light Snow
11:53 AM 28.0 °F 14.6 °F 18.0 °F 66% 29.84 in 8.0 mi NW 20.7 mph - 0.00 in Snow Light Snow
12:02 PM 28.4 °F 15.4 °F 17.6 °F 64% 29.83 in 8.0 mi NW 19.6 mph - 0.00 in Snow Light Snow
12:53 PM 28.0 °F 14.6 °F 18.0 °F 66% 29.82 in 8.0 mi NNW 20.7 mph - 0.00 in Snow Light Snow
1:02 PM 28.4 °F 14.4 °F 15.8 °F 59% 29.81 in 9.0 mi NNW 23.0 mph 28.8 mph 0.00 in Snow Light Snow
1:53 PM 28.0 °F 13.9 °F 19.0 °F 69% 29.79 in 6.0 mi NW 23.0 mph - 0.00 in Snow Light Snow
2:30 PM 28.4 °F 14.4 °F 19.4 °F 69% 29.77 in 2.5 mi NW 23.0 mph - 0.00 in Snow Light Snow
2:37 PM 26.6 °F 12.0 °F 19.4 °F 74% 29.76 in 1.2 mi NW 23.0 mph - 0.00 in Snow Light Snow
2:45 PM 26.6 °F 12.7 °F 19.4 °F 74% 29.76 in 2.5 mi NW 20.7 mph - 0.00 in Snow Light Snow
2:53 PM 27.0 °F 12.5 °F 19.0 °F 72% 29.76 in 2.5 mi NW 23.0 mph 28.8 mph 0.00 in Snow Light Snow
3:14 PM 26.6 °F 13.1 °F 19.4 °F 74% 29.74 in 4.0 mi NW 19.6 mph - 0.00 in Snow Light Snow
3:21 PM 26.6 °F 12.4 °F 19.4 °F 74% 29.73 in 1.8 mi NW 21.9 mph - 0.00 in Snow Light Snow
3:29 PM 26.6 °F 12.4 °F 19.4 °F 74% 29.73 in 3.0 mi NW 21.9 mph 27.6 mph 0.00 in Snow Light Snow
3:43 PM 26.6 °F 12.0 °F 21.2 °F 80% 29.72 in 1.5 mi NW 23.0 mph - 0.00 in Snow Light Snow
3:53 PM 26.1 °F 12.3 °F 21.0 °F 81% 29.72 in 0.8 mi NNW 19.6 mph 25.3 mph 0.01 in Snow Light Snow
3:55 PM 26.6 °F 12.7 °F 21.2 °F 80% 29.71 in 0.5 mi NNW 20.7 mph 25.3 mph 0.00 in Snow Snow
4:01 PM 26.6 °F 13.1 °F 21.2 °F 80% 29.71 in 1.0 mi NNW 19.6 mph - 0.00 in Snow Light Snow
4:06 PM 26.6 °F 12.7 °F 21.2 °F 80% 29.71 in 3.0 mi NNW 20.7 mph 28.8 mph 0.00 in Snow Light Snow
4:14 PM 26.6 °F 13.1 °F 21.2 °F 80% 29.70 in 1.8 mi NNW 19.6 mph - 0.00 in Snow Light Snow
4:27 PM 26.6 °F 13.4 °F 21.2 °F 80% 29.70 in 0.8 mi NNW 18.4 mph - 0.01 in Snow Light Snow
4:32 PM 26.6 °F 13.8 °F 21.2 °F 80% 29.69 in 1.0 mi NNW 17.3 mph - 0.01 in Snow Light Snow
4:53 PM 25.0 °F 10.2 °F 19.9 °F 81% 29.69 in 1.8 mi NNW 21.9 mph 26.5 mph 0.01 in Snow Light Snow
4:56 PM 24.8 °F 10.3 °F 19.4 °F 80% 29.68 in 3.0 mi NNW 20.7 mph - 0.00 in Snow Light Snow
5:07 PM 24.8 °F 11.5 °F 19.4 °F 80% 29.68 in 1.8 mi NNW 17.3 mph - 0.00 in Snow Light Snow
5:38 PM 24.8 °F 10.7 °F 19.4 °F 80% 29.67 in 3.0 mi NNW 19.6 mph 26.5 mph 0.00 in Snow Light Snow
5:53 PM 25.0 °F 10.9 °F 19.0 °F 78% 29.67 in 4.0 mi NNW 19.6 mph 26.5 mph 0.01 in Snow Light Snow
6:00 PM 24.8 °F 10.7 °F 17.6 °F 74% 29.66 in 8.0 mi NNW 19.6 mph - 0.00 in   Overcast
6:20 PM 24.8 °F 11.5 °F 17.6 °F 74% 29.66 in 1.8 mi NW 17.3 mph - 0.00 in Snow Light Snow
6:29 PM 24.8 °F 10.3 °F 17.6 °F 74% 29.66 in 3.0 mi NNW 20.7 mph - 0.00 in Snow Light Snow
6:37 PM 24.8 °F 10.3 °F 17.6 °F 74% 29.66 in 9.0 mi NNW 20.7 mph - 0.00 in   Overcast
6:53 PM 24.1 °F 9.0 °F 17.1 °F 75% 29.66 in 3.0 mi NNW 21.9 mph 27.6 mph 0.00 in Snow Light Snow
7:00 PM 24.8 °F 11.1 °F 17.6 °F 74% 29.65 in 1.8 mi NNW 18.4 mph 29.9 mph 0.00 in Snow Light Snow
7:06 PM 24.8 °F 11.1 °F 17.6 °F 74% 29.65 in 3.0 mi NNW 18.4 mph 29.9 mph 0.00 in Snow Light Snow
7:17 PM 24.8 °F 11.5 °F 17.6 °F 74% 29.64 in 7.0 mi NNW 17.3 mph - 0.00 in Snow Light Snow
7:45 PM 23.0 °F 8.7 °F 15.8 °F 74% 29.64 in 1.8 mi NNW 18.4 mph - 0.00 in Snow Light Snow
7:53 PM 23.0 °F 9.2 °F 17.1 °F 78% 29.64 in 1.0 mi NNW 17.3 mph - 0.00 in Snow Light Snow
8:19 PM 23.0 °F 9.2 °F 19.4 °F 86% 29.62 in 2.0 mi NNW 17.3 mph 24.2 mph 0.01 in Snow Light Snow
8:41 PM 24.8 °F 10.3 °F 17.6 °F 74% 29.61 in 5.0 mi North 20.7 mph 26.5 mph 0.01 in Snow Light Snow
8:53 PM 23.0 °F 7.6 °F 16.0 °F 74% 29.61 in 9.0 mi North 21.9 mph - 0.01 in   Overcast
9:05 PM 23.0 °F 6.6 °F 14.0 °F 68% 29.60 in 10.0 mi North 25.3 mph 29.9 mph N/A   Overcast
9:53 PM 21.9 °F 6.9 °F 12.9 °F 68% 29.60 in 10.0 mi North 19.6 mph - N/A   Overcast
10:49 PM 21.2 °F 7.3 °F 12.2 °F 68% 29.58 in 2.5 mi North 16.1 mph - 0.01 in Snow Light Snow
10:53 PM 21.0 °F 7.1 °F 12.9 °F 71% 29.59 in 3.0 mi North 16.1 mph - 0.01 in Snow Light Snow
11:13 PM 21.2 °F 7.3 °F 12.2 °F 68% 29.58 in 9.0 mi North 16.1 mph 24.2 mph 0.00 in   Overcast
11:53 PM 19.9 °F 7.9 °F 12.9 °F 74% 29.58 in 4.0 mi NNW 11.5 mph - 0.00 in Snow Light Snow